Stations météo

Publicité
Rodez, France (7552): Température de l'air & dewpoint: 12.02.2020 07:00:00 - 18.02.2020 07:00:00 (CET)Rodez, France (7552): Température de l'air 5cm: 12.02.2020 07:00:00 - 18.02.2020 07:00:00 (CET)Rodez, France (7552): Vitesse du vent & gusts: 12.02.2020 07:00:00 - 18.02.2020 07:00:00 (CET)Rodez, France (7552): Direction du vent: 12.02.2020 07:00:00 - 18.02.2020 07:00:00 (CET)Rodez, France (7552): reduced air pressure: 12.02.2020 07:00:00 - 18.02.2020 07:00:00 (CET)Rodez, France (7552): visibility: 12.02.2020 07:00:00 - 18.02.2020 07:00:00 (CET)Rodez, France (7552): Ensoleillement: 12.02.2020 07:00:00 - 18.02.2020 07:00:00 (CET)Rodez, France (7552): Quantités de précipitations: 12.02.2020 07:00:00 - 18.02.2020 07:00:00 (CET)
Date & Time tt [°C] td [°C] tt 5cm [°C] ff [km/h] ff [knt] fx [km/h] fx [knt] dd ppp [hPa] vv [km] sd [min] rr [mm]
18.02.2020 07:00:00 3,7 3,3 3,7 13 7 22 12 WNW 1033,8 9 0 0,0
18.02.2020 06:00:00 3,7 3,0 3,0 14 7 23 12 NW 1033,8 18 0 0,0
18.02.2020 05:00:00 3,7 3,1 2,0 8 4 23 12 NNW 1033,7 20 0 0,0
18.02.2020 04:00:00 3,5 2,8 2,6 13 7 32 17 NW 1033,5 20 0 0,0
18.02.2020 03:00:00 4,4 3,4 3,9 23 13 36 20 WNW 1033,6 39 0 0,0
18.02.2020 02:00:00 4,9 3,7 4,3 20 11 40 21 WNW 1033,4 49 0 0,0
18.02.2020 01:00:00 4,9 3,6 3,9 29 16 41 22 WNW 1032,8 57 0 0,0
18.02.2020 00:00:00 5,1 3,3 4,1 34 19 48 26 WNW 1032,7 60 0 0,0
17.02.2020 23:00:00 6,3 5,3 5,6 25 13 37 20 W 1032,2 19 0 1,2
17.02.2020 22:00:00 6,4 5,0 5,6 25 14 43 23 WNW 1031,8 18 0 0,2
17.02.2020 21:00:00 6,1 4,7 5,3 21 11 34 18 W 1031,3 58 0 0,0
17.02.2020 20:00:00 5,9 4,7 5,2 19 11 31 17 W 1030,8 60 0 0,0
17.02.2020 19:00:00 6,4 4,9 5,8 23 12 36 19 W 1029,8 15 0 0,2
17.02.2020 18:00:00 6,7 5,2 6,4 11 6 21 11 WSW 1029,1 20 0 0,0
17.02.2020 17:00:00 6,8 4,5 6,0 12 7 33 18 WNW 1028,4 60 0 0,0
17.02.2020 16:00:00 6,8 4,8 6,5 22 12 44 24 WNW 1028,1 60 0 0,2
17.02.2020 15:00:00 7,2 6,6 7,2 18 10 32 17 WNW 1027,2 6 0 0,4
17.02.2020 14:00:00 7,2 6,6 7,3 22 12 35 19 WNW 1027,1 4,7 0 0,6
17.02.2020 13:00:00 7,4 6,8 7,4 25 14 38 20 NW 1027,0 4,0 0 1,6
17.02.2020 12:00:00 8,2 7,4 8,1 16 9 42 23 NW 1026,1 4,9 0 0,0
17.02.2020 11:00:00 11,1 7,6 11,1 9 5 18 10 S 1024,0 54 0 0,0
17.02.2020 10:00:00 10,2 7,3 9,3 8 4 19 11 SSE 1023,5 60 0 0,0
17.02.2020 09:00:00 9,1 7,0 7,7 10 5 20 11 SE 1023,5 60 0 0,0
17.02.2020 08:00:00 8,7 6,3 7,6 14 8 25 14 SE 1022,5 60 0 0,0
17.02.2020 07:00:00 8,8 6,2 7,8 15 8 28 15 SE 1021,8 60 0 0,0
17.02.2020 06:00:00 9,2 6,5 7,9 18 10 34 18 ESE 1021,6 60 0 0,0
17.02.2020 05:00:00 9,2 6,5 8,2 21 12 35 19 ESE 1021,6 60 0 0,0
17.02.2020 04:00:00 9,3 6,6 8,4 22 12 36 19 ESE 1021,8 60 0 0,0
17.02.2020 03:00:00 9,6 6,9 8,6 23 12 40 22 ESE 1022,1 60 0 0,0
17.02.2020 02:00:00 9,7 6,8 8,3 30 16 42 23 ESE 1022,2 60 0 0,0
17.02.2020 01:00:00 9,4 6,3 8,3 24 13 41 22 ESE 1022,9 60 0 0,0
17.02.2020 00:00:00 9,6 6,5 8,6 25 14 46 25 ESE 1023,2 60 0 0,0
16.02.2020 23:00:00 9,8 6,7 8,7 29 15 42 23 SE 1022,9 60 0 0,0
16.02.2020 22:00:00 10,0 6,7 8,9 25 14 40 22 ESE 1023,3 60 0 0,0
16.02.2020 21:00:00 10,0 6,5 9,1 23 12 42 23 ESE 1023,1 60 0 0,0
16.02.2020 20:00:00 10,3 6,8 9,5 26 14 45 25 ESE 1022,7 60 0 0,0
16.02.2020 19:00:00 10,5 6,6 9,7 25 13 42 23 ESE 1022,2 60 0 0,0
16.02.2020 18:00:00 11,2 6,7 10,6 23 13 45 24 ESE 1021,6 60 0 0,0
16.02.2020 17:00:00 12,2 6,9 12,0 27 15 46 25 SE 1020,9 49 14 0,0
16.02.2020 16:00:00 13,1 7,1 14,1 31 17 48 26 SE 1020,6 36 33 0,0
16.02.2020 15:00:00 14,3 7,6 14,6 29 15 46 25 SE 1020,2 60 28 0,0
16.02.2020 14:00:00 14,3 7,3 15,4 31 17 46 25 ESE 1020,4 59 14 0,0
16.02.2020 13:00:00 13,7 7,0 15,2 34 18 48 26 SE 1020,9 59 25 0,0
16.02.2020 12:00:00 13,9 7,2 15,1 33 18 48 26 ESE 1021,5 36 51 0,0
16.02.2020 11:00:00 13,1 7,3 13,3 26 14 48 26 ESE 1021,5 40 58 0,0
16.02.2020 10:00:00 11,1 6,6 9,5 30 16 46 25 ESE 1022,5 33 48 0,0
16.02.2020 09:00:00 9,2 5,9 7,3 24 13 38 20 ESE 1022,9 39 15 0,0
16.02.2020 08:00:00 8,2 5,7 6,9 23 13 35 19 ESE 1023,2 60 0 0,0
16.02.2020 07:00:00 8,0 5,8 6,7 23 13 35 19 ESE 1023,0 60 0 0,0
16.02.2020 06:00:00 7,7 5,5 5,7 19 10 43 23 ESE 1023,5 31 0 0,0
16.02.2020 05:00:00 6,9 3,9 5,9 27 14 49 26 ESE 1023,7 27 0 0,0
16.02.2020 04:00:00 8,2 -0,1 6,4 20 11 32 18 ESE 1023,1 60 0 0,0
16.02.2020 03:00:00 8,1 -0,4 5,3 22 12 35 19 SE 1023,4 60 0 0,0
16.02.2020 02:00:00 7,1 -0,6 5,2 16 9 27 14 ESE 1024,6 60 0 0,0
16.02.2020 01:00:00 8,0 0,0 6,4 15 8 26 14 ESE 1025,0 60 0 0,0
16.02.2020 00:00:00 8,5 0,5 4,9 10 5 26 14 ESE 1026,0 60 0 0,0
15.02.2020 23:00:00 8,5 1,9 5,1 13 7 22 12 E 1024,8 60 0 0,0
15.02.2020 22:00:00 8,8 4,0 7,2 14 7 34 18 ESE 1025,0 60 0 0,0
15.02.2020 21:00:00 9,2 4,4 8,4 22 12 32 17 SE 1025,2 60 0 0,0
15.02.2020 20:00:00 9,6 4,2 8,7 20 11 33 18 SE 1024,8 60 0 0,0
15.02.2020 19:00:00 10,5 4,0 7,3 16 9 24 13 SE 1024,1 60 0 0,0
15.02.2020 18:00:00 11,5 3,3 8,7 12 6 21 11 SE 1023,1 60 5 0,0
15.02.2020 17:00:00 14,5 2,4 15,2 16 9 24 13 SSE 1022,2 60 60 0,0
15.02.2020 16:00:00 16,0 2,7 19,4 17 9 29 16 SSE 1021,9 20 60 0,0
15.02.2020 15:00:00 16,2 0,7 20,1 19 10 29 16 S 1021,6 60 60 0,0
15.02.2020 14:00:00 15,9 -0,8 18,5 17 9 31 17 SSE 1022,4 55 60 0,0
15.02.2020 13:00:00 14,6 -0,3 15,0 21 11 32 17 SE 1023,4 60 60 0,0
15.02.2020 12:00:00 11,7 2,4 11,3 16 9 26 14 ESE 1024,7 60 60 0,0
15.02.2020 11:00:00 9,0 1,2 9,4 15 8 23 12 ESE 1025,6 60 54 0,0
15.02.2020 10:00:00 5,8 1,1 3,9 11 6 16 8 E 1026,0 60 60 0,0
15.02.2020 09:00:00 2,1 0,0 -4,4 4 2 15 8 SE 1027,1 51 21 0,0
15.02.2020 08:00:00 -0,6 -1,4 -5,0 6 3 12 7 SE 1027,3 15 0 0,0
15.02.2020 07:00:00 -0,5 -0,9 -5,5 8 4 11 6 ESE 1026,9 19 0 0,0
15.02.2020 06:00:00 -2,4 -3,4 -5,0 6 3 13 7 SE 1027,6 10 0 0,0
15.02.2020 05:00:00 -1,1 -1,8 -4,8 4 2 12 6 ESE 1027,1 14 0 0,0
15.02.2020 04:00:00 -1,2 -1,8 -5,2 3 2 10 5 SSW 1027,4 2,0 0 0,0
15.02.2020 03:00:00 -0,4 -1,1 -4,8 8 4 11 6 SE 1027,4 9 0 0,0
15.02.2020 02:00:00 0,7 0,1 -4,7 8 5 11 6 ESE 1027,7 11 0 0,0
15.02.2020 01:00:00 0,9 0,2 -4,3 0 0 5 3 N 1027,9 14 0 0,0
15.02.2020 00:00:00 0,3 -0,6 -3,8 3 2 11 6 S 1028,4 14 0 0,0
14.02.2020 23:00:00 0,2 -1,1 -3,7 4 2 7 4 SE 1028,1 20 0 0,0
14.02.2020 22:00:00 1,6 0,7 -2,8 4 2 9 5 SW 1028,0 20 0 0,0
14.02.2020 21:00:00 1,2 -1,2 -2,3 5 3 6 4 SSW 1028,3 41 0 0,0
14.02.2020 20:00:00 2,1 -0,5 -1,9 4 2 8 4 S 1028,3 48 0 0,0
14.02.2020 19:00:00 5,0 1,3 0,3 6 4 12 7 WNW 1027,3 48 0 0,0
14.02.2020 18:00:00 7,5 2,6 6,4 9 5 21 12 NW 1026,5 50 52 0,0
14.02.2020 17:00:00 9,5 2,8 10,4 8 4 28 15 NNW 1026,2 43 49 0,0
14.02.2020 16:00:00 9,9 3,2 11,2 12 7 24 13 WNW 1026,2 20 45 0,0
14.02.2020 15:00:00 9,4 2,9 10,9 9 5 29 16 W 1026,7 56 18 0,0
14.02.2020 14:00:00 9,0 3,2 10,6 18 10 26 14 NW 1026,6 20 17 0,0
14.02.2020 13:00:00 8,6 3,0 10,0 11 6 26 14 NW 1027,7 50 1 0,0
14.02.2020 12:00:00 8,1 2,5 10,3 10 6 29 16 NW 1027,8 46 40 0,0
14.02.2020 11:00:00 6,9 5,0 7,9 18 10 27 15 NW 1027,3 12 4 0,0
14.02.2020 10:00:00 6,3 4,3 6,1 14 8 25 14 NW 1027,5 14 0 0,0
14.02.2020 09:00:00 5,8 4,4 5,2 11 6 18 10 W 1027,4 10 0 0,0
14.02.2020 08:00:00 5,5 4,6 5,2 11 6 18 10 W 1027,4 9 0 0,0
14.02.2020 07:00:00 5,5 4,3 5,3 14 8 29 16 W 1026,5 9 0 0,0
14.02.2020 06:00:00 5,7 4,5 5,5 20 11 34 18 W 1025,8 9 0 0,0
14.02.2020 05:00:00 5,8 4,4 5,6 24 13 40 22 W 1025,0 10 0 0,0
14.02.2020 04:00:00 6,0 4,6 5,8 28 15 43 23 W 1024,8 9 0 0,0
14.02.2020 03:00:00 6,0 4,6 5,8 28 15 39 21 W 1024,9 9 0 0,0
14.02.2020 02:00:00 6,2 4,7 5,8 26 14 41 22 W 1024,6 10 0 0,0
14.02.2020 01:00:00 6,1 4,6 5,6 24 13 43 23 W 1024,4 9 0 0,0
14.02.2020 00:00:00 6,1 4,4 5,5 26 14 41 22 W 1024,3 10 0 0,0
13.02.2020 23:00:00 6,0 3,8 5,3 27 14 45 24 W 1023,8 13 0 0,0
13.02.2020 22:00:00 6,7 3,7 6,0 26 14 45 25 W 1022,7 15 0 0,0
13.02.2020 21:00:00 7,4 5,2 6,7 28 15 64 35 W 1022,3 18 0 0,0
13.02.2020 20:00:00 8,9 6,5 8,4 42 23 72 39 W 1020,5 18 0 0,4
13.02.2020 19:00:00 10,3 7,5 9,3 28 15 59 32 WSW 1018,5 53 0 0,0
13.02.2020 18:00:00 10,2 7,6 9,0 29 15 50 27 WSW 1018,1 56 2 1,0
13.02.2020 17:00:00 10,9 7,6 10,5 29 16 46 25 WSW 1017,8 55 6 0,0
13.02.2020 16:00:00 10,8 7,7 10,9 26 14 46 25 WSW 1018,2 50 5 0,0
13.02.2020 15:00:00 9,4 7,3 8,1 17 9 28 15 SSW 1018,4 57 3 0,8
13.02.2020 14:00:00 9,7 7,0 8,8 18 10 27 15 SW 1018,3 18 0 0,4
13.02.2020 13:00:00 10,4 6,0 8,4 18 10 31 17 SSW 1018,2 20 0 0,2
13.02.2020 12:00:00 10,4 4,5 9,0 20 11 29 16 SW 1018,9 60 0 0,0
13.02.2020 11:00:00 9,3 5,3 6,4 11 6 22 12 SSW 1019,0 55 0 0,0
13.02.2020 10:00:00 6,1 2,9 4,0 4 2 8 5 ENE 1019,7 37 0 0,2
13.02.2020 09:00:00 4,0 1,4 2,6 11 6 17 9 SE 1020,1 59 3 0,2
13.02.2020 08:00:00 3,4 -0,8 0,5 7 4 12 7 ENE 1019,9 53 0 0,0
13.02.2020 07:00:00 1,3 -1,1 -2,0 4 2 13 7 SE 1020,4 60 0 0,0
13.02.2020 06:00:00 0,4 -2,0 -1,4 10 6 15 8 E 1021,1 60 0 0,0
13.02.2020 05:00:00 1,0 -1,7 -3,2 9 5 13 7 E 1021,2 52 0 0,0
13.02.2020 04:00:00 -1,2 -3,2 -3,9 7 4 9 5 ESE 1022,0 56 0 0,0
13.02.2020 03:00:00 0,2 -1,7 -2,9 8 4 10 6 ESE 1022,5 53 0 0,0
13.02.2020 02:00:00 0,2 -1,6 -3,3 11 6 17 9 SE 1023,4 34 0 0,0
13.02.2020 01:00:00 0,8 -1,3 -3,0 6 4 11 6 ESE 1024,1 34 0 0,0
13.02.2020 00:00:00 -0,2 -1,9 -3,7 11 6 16 8 SE 1024,6 39 0 0,0
12.02.2020 23:00:00 0,9 -1,2 -2,7 10 5 18 10 SE 1024,4 48 0 0,0
12.02.2020 22:00:00 1,2 -1,0 -2,5 13 7 19 11 SE 1024,3 46 0 0,0
12.02.2020 21:00:00 0,5 -1,4 -3,1 8 5 11 6 SE 1024,8 49 0 0,0
12.02.2020 20:00:00 2,3 -0,5 -2,1 7 4 8 4 SE 1025,1 59 0 0,0
12.02.2020 19:00:00 2,9 -0,7 -1,7 4 2 9 5 SSW 1025,2 60 0 0,0
12.02.2020 18:00:00 5,4 -0,4 2,0 6 3 12 6 W 1024,4 60 23 0,0
12.02.2020 17:00:00 8,1 -0,2 9,8 8 5 19 11 WSW 1024,0 59 60 0,0
12.02.2020 16:00:00 8,2 -0,1 8,9 10 5 21 12 NW 1024,5 60 22 0,0
12.02.2020 15:00:00 8,2 0,2 12,5 9 5 24 13 W 1024,9 52 60 0,0
12.02.2020 14:00:00 7,6 -0,4 11,3 6 3 17 9 NNW 1026,2 58 49 0,0
12.02.2020 13:00:00 7,2 1,5 11,8 6 3 13 7 N 1026,8 20 54 0,0
12.02.2020 12:00:00 6,4 2,1 9,8 4 2 13 7 NNE 1027,8 20 - 0,0
12.02.2020 11:00:00 5,4 3,9 7,1 4 2 7 4 W 1028,1 42 52 0,0
12.02.2020 10:00:00 3,5 3,4 3,6 5 3 11 6 S 1028,2 9 24 0,0
12.02.2020 09:00:00 3,0 3,0 2,9 4 2 8 4 SSW 1028,3 7 0 0,0
12.02.2020 08:00:00 2,8 2,8 2,1 3 2 13 7 NNW 1028,0 3,4 0 0,0
12.02.2020 07:00:00 2,5 2,5 -0,5 4 2 8 5 NW 1027,5 4,5 0 0,0

tt = Température de l'air
td = dewpoint
tt 5cm = Température de l'air 5cm
ff = Vitesse du vent
fx = gusts
dd = Direction du vent
ppp = reduced air pressure
vv = visibility
sd = Ensoleillement
rr = Quantités de précipitations

stations d'obs. à proximité